When you browse on this site, cookies collect data to enhance your experience and personalize the content and advertising you see.
Visit our Privacy Policy to learn more. By continuing to use the site, you agree to this use of cookies and data.
  • In Schweiz
  • Länderverzeichnis
  • Für 7 Tage
  • Wassertemperatur
  • Wetterkarte
  • Widgets
  • user-avatar
    Anmelden

    Stündliche Wetter Donets'k

    Heute, 25 Februar, Dienstag

    Zeit Temperatur Niederschläge Wind Luftdruck Luftfeuchtigkeit
    00:00 -3°C° 0.4 mm 9 m/S 727 mmHg 96%
    01:00 -3°C° 0.6 mm 10 m/S 728 mmHg 96%
    02:00 -3°C° 0.6 mm 11 m/S 730 mmHg 96%
    03:00 -5°C° 0.6 mm 12 m/S 731 mmHg 96%
    04:00 -4°C° 0.4 mm 11 m/S 732 mmHg 92%
    05:00 -3°C° 0.4 mm 11 m/S 734 mmHg 88%
    06:00 -3°C° 0.4 mm 10 m/S 735 mmHg 84%
    07:00 -3°C° 0 mm 10 m/S 736 mmHg 84%
    08:00 -3°C° 0 mm 9 m/S 738 mmHg 83%
    09:00 -3°C° 0 mm 9 m/S 739 mmHg 83%
    10:00 -2°C° 0 mm 8 m/S 740 mmHg 80%
    11:00 -1°C° 0 mm 8 m/S 741 mmHg 77%
    12:00 -1°C° 0 mm 7 m/S 742 mmHg 74%
    13:00 0°C° 0 mm 7 m/S 742 mmHg 69%
    14:00 +2°C° 0 mm 6 m/S 742 mmHg 63%
    15:00 +2°C° 0 mm 6 m/S 742 mmHg 57%
    16:00 +2°C° 0 mm 5 m/S 742 mmHg 61%
    17:00 +1°C° 0 mm 4 m/S 743 mmHg 64%
    18:00 +1°C° 0 mm 3 m/S 743 mmHg 68%
    19:00 +1°C° 0 mm 3 m/S 743 mmHg 68%
    20:00 0°C° 0 mm 3 m/S 743 mmHg 69%
    21:00 0°C° 0 mm 3 m/S 743 mmHg 70%
    22:00 0°C° 0 mm 3 m/S 743 mmHg 73%
    23:00 0°C° 0 mm 3 m/S 743 mmHg 76%

    Morgen, 26 Februar, Mittwoch

    Zeit Temperatur Niederschläge Wind Luftdruck Luftfeuchtigkeit
    00:00 0°C° 0 mm 3 m/S 743 mmHg 79%
    01:00 -1°C° 0 mm 4 m/S 743 mmHg 81%
    02:00 -1°C° 0 mm 4 m/S 742 mmHg 83%
    03:00 -1°C° 0 mm 4 m/S 742 mmHg 85%
    04:00 -1°C° 0 mm 4 m/S 742 mmHg 86%
    05:00 -1°C° 0 mm 5 m/S 741 mmHg 86%
    06:00 -1°C° 0 mm 5 m/S 741 mmHg 87%
    07:00 0°C° 0 mm 5 m/S 741 mmHg 86%
    08:00 -1°C° 0 mm 6 m/S 741 mmHg 84%
    09:00 +1°C° 0 mm 6 m/S 741 mmHg 83%
    10:00 +2°C° 0 mm 7 m/S 740 mmHg 77%
    11:00 +4°C° 0 mm 8 m/S 740 mmHg 71%
    12:00 +5°C° 0 mm 8 m/S 740 mmHg 65%
    13:00 +5°C° 0 mm 8 m/S 739 mmHg 63%
    14:00 +6°C° 0 mm 9 m/S 739 mmHg 61%
    15:00 +6°C° 0 mm 9 m/S 738 mmHg 59%
    16:00 +5°C° 0 mm 9 m/S 738 mmHg 62%
    17:00 +4°C° 0 mm 8 m/S 738 mmHg 65%
    18:00 +4°C° 0 mm 8 m/S 738 mmHg 68%
    19:00 +2°C° 0 mm 8 m/S 738 mmHg 71%
    20:00 +2°C° 0 mm 8 m/S 737 mmHg 73%
    21:00 +2°C° 0 mm 8 m/S 737 mmHg 76%
    22:00 +3°C° 0 mm 7 m/S 737 mmHg 76%
    23:00 +2°C° 0 mm 7 m/S 737 mmHg 76%

    übermorgen, 27 Februar, Donnerstag

    Zeit Temperatur Niederschläge Wind Luftdruck Luftfeuchtigkeit
    00:00 +2°C° 0 mm 7 m/S 737 mmHg 76%
    01:00 +2°C° 0 mm 6 m/S 736 mmHg 76%
    02:00 +2°C° 0 mm 6 m/S 736 mmHg 76%
    03:00 +2°C° 0 mm 6 m/S 736 mmHg 77%
    04:00 +3°C° 0 mm 6 m/S 735 mmHg 77%
    05:00 +3°C° 0 mm 6 m/S 735 mmHg 78%
    06:00 +3°C° 0 mm 6 m/S 735 mmHg 79%
    07:00 +4°C° 0 mm 6 m/S 735 mmHg 79%
    08:00 +4°C° 0 mm 7 m/S 734 mmHg 78%
    09:00 +5°C° 0 mm 7 m/S 734 mmHg 78%
    10:00 +6°C° 0 mm 7 m/S 734 mmHg 75%
    11:00 +7°C° 0 mm 8 m/S 734 mmHg 71%
    12:00 +9°C° 0 mm 8 m/S 734 mmHg 67%
    13:00 +10°C° 0 mm 8 m/S 734 mmHg 67%
    14:00 +11°C° 0 mm 8 m/S 734 mmHg 67%
    15:00 +12°C° 0 mm 8 m/S 734 mmHg 67%
    16:00 +11°C° 0 mm 8 m/S 734 mmHg 71%
    17:00 +11°C° 0 mm 7 m/S 734 mmHg 74%
    18:00 +10°C° 0 mm 6 m/S 733 mmHg 78%
    19:00 +10°C° 0 mm 7 m/S 734 mmHg 78%
    20:00 +9°C° 0 mm 7 m/S 734 mmHg 79%
    21:00 +9°C° 0 mm 7 m/S 734 mmHg 79%
    22:00 +9°C° 0.1 mm 6 m/S 734 mmHg 79%
    23:00 +8°C° 0.1 mm 5 m/S 733 mmHg 78%

    28 Februar, Freitag

    Zeit Temperatur Niederschläge Wind Luftdruck Luftfeuchtigkeit
    00:00 +8°C° 0.1 mm 4 m/S 733 mmHg 77%
    01:00 +7°C° 0.1 mm 5 m/S 733 mmHg 79%
    02:00 +7°C° 0.1 mm 5 m/S 732 mmHg 81%
    03:00 +7°C° 0.1 mm 5 m/S 732 mmHg 82%
    04:00 +5°C° 0.6 mm 6 m/S 731 mmHg 86%
    05:00 +5°C° 0.6 mm 7 m/S 731 mmHg 89%
    06:00 +5°C° 0.6 mm 8 m/S 730 mmHg 92%
    07:00 +5°C° 0.3 mm 8 m/S 730 mmHg 87%
    08:00 +4°C° 0.3 mm 8 m/S 730 mmHg 83%
    09:00 +4°C° 0.3 mm 8 m/S 730 mmHg 78%
    10:00 +4°C° 0.1 mm 7 m/S 731 mmHg 80%
    11:00 +3°C° 0.1 mm 7 m/S 731 mmHg 82%
    12:00 +3°C° 0.1 mm 7 m/S 732 mmHg 83%
    13:00 +2°C° 0.1 mm 8 m/S 733 mmHg 80%
    14:00 +1°C° 0.1 mm 9 m/S 735 mmHg 76%
    15:00 +1°C° 0.1 mm 10 m/S 736 mmHg 73%
    16:00 +1°C° 0 mm 8 m/S 737 mmHg 70%
    17:00 +2°C° 0 mm 6 m/S 738 mmHg 68%
    18:00 +2°C° 0 mm 5 m/S 739 mmHg 65%
    19:00 +1°C° 0 mm 4 m/S 740 mmHg 68%
    20:00 +2°C° 0 mm 3 m/S 741 mmHg 71%
    21:00 +1°C° 0 mm 3 m/S 741 mmHg 73%
    22:00 +2°C° 0 mm 2 m/S 741 mmHg 73%
    23:00 +2°C° 0 mm 2 m/S 741 mmHg 72%

    29 Februar, Samstag

    Zeit Temperatur Niederschläge Wind Luftdruck Luftfeuchtigkeit
    00:00 +1°C° 0 mm 2 m/S 741 mmHg 72%
    01:00 +1°C° 0 mm 2 m/S 741 mmHg 73%
    02:00 +1°C° 0 mm 2 m/S 741 mmHg 74%
    03:00 0°C° 0 mm 3 m/S 741 mmHg 76%
    04:00 0°C° 0 mm 3 m/S 740 mmHg 77%
    05:00 0°C° 0 mm 3 m/S 740 mmHg 78%
    06:00 0°C° 0 mm 3 m/S 740 mmHg 80%
    07:00 +1°C° 0 mm 3 m/S 740 mmHg 83%
    08:00 0°C° 0 mm 4 m/S 739 mmHg 86%
    09:00 +1°C° 0 mm 4 m/S 739 mmHg 89%
    10:00 +1°C° 0.5 mm 4 m/S 739 mmHg 90%
    11:00 +1°C° 0.5 mm 5 m/S 738 mmHg 92%
    12:00 +1°C° 0.5 mm 5 m/S 738 mmHg 94%
    13:00 +1°C° 0.9 mm 6 m/S 737 mmHg 95%
    14:00 -1°C° 0.9 mm 7 m/S 737 mmHg 95%
    15:00 -1°C° 0.9 mm 7 m/S 736 mmHg 96%
    16:00 0°C° 0.9 mm 7 m/S 736 mmHg 96%
    17:00 0°C° 0.9 mm 7 m/S 736 mmHg 96%
    18:00 0°C° 0.9 mm 7 m/S 736 mmHg 96%
    19:00 0°C° 0.5 mm 7 m/S 736 mmHg 96%
    20:00 -1°C° 0.5 mm 7 m/S 736 mmHg 95%
    21:00 -1°C° 0.5 mm 7 m/S 736 mmHg 95%
    22:00 -2°C° 0.4 mm 7 m/S 736 mmHg 95%
    23:00 -2°C° 0.4 mm 8 m/S 737 mmHg 95%

    1 März, Sonntag

    Zeit Temperatur Niederschläge Wind Luftdruck Luftfeuchtigkeit
    00:00 -2°C° 0.4 mm 8 m/S 737 mmHg 95%
    01:00 -3°C° 0.2 mm 9 m/S 738 mmHg 91%
    02:00 -3°C° 0.2 mm 9 m/S 738 mmHg 86%
    03:00 -3°C° 0.2 mm 9 m/S 739 mmHg 81%
    04:00 -3°C° 0 mm 9 m/S 740 mmHg 80%
    05:00 -4°C° 0 mm 8 m/S 740 mmHg 79%
    06:00 -4°C° 0 mm 8 m/S 741 mmHg 77%
    07:00 -3°C° 0 mm 7 m/S 742 mmHg 75%
    08:00 -3°C° 0 mm 7 m/S 742 mmHg 72%
    09:00 -2°C° 0 mm 7 m/S 743 mmHg 70%
    10:00 -1°C° 0 mm 7 m/S 743 mmHg 64%
    11:00 0°C° 0 mm 7 m/S 744 mmHg 58%
    12:00 +2°C° 0 mm 6 m/S 744 mmHg 52%
    13:00 +3°C° 0 mm 6 m/S 744 mmHg 51%
    14:00 +3°C° 0 mm 6 m/S 745 mmHg 50%
    15:00 +4°C° 0 mm 6 m/S 745 mmHg 49%
    16:00 +4°C° 0 mm 4 m/S 745 mmHg 52%
    17:00 +4°C° 0 mm 3 m/S 745 mmHg 55%
    18:00 +4°C° 0 mm 2 m/S 745 mmHg 57%
    19:00 +4°C° 0 mm 2 m/S 745 mmHg 64%
    20:00 +2°C° 0 mm 3 m/S 745 mmHg 70%
    21:00 +2°C° 0 mm 3 m/S 745 mmHg 76%
    22:00 +2°C° 0 mm 3 m/S 744 mmHg 77%
    23:00 +1°C° 0 mm 4 m/S 744 mmHg 78%
    Mehr zeigen